SQ9SMC-13 Weather Reports


time (UTC)temp
C
wind
direction
speed
KPH
gust
KPH
rain 1hr
cm
rain 24hr
cm
rain mn
cm
humidity
%
barometer
mb
20260507230504 10 115 3.2 3.2 0.00 0.00 0.03 99 1017.3
20260507225503 10 154 1.6 3.2 0.03 0.00 0.03 99 1017.3
20260507225003 10 175 0.0 1.6 0.03 0.00 0.03 99 1017.4
20260507224504 10 109 1.6 3.2 0.03 0.00 0.03 99 1017.4
20260507224005 10 169 1.6 3.2 0.03 0.00 0.03 99 1017.3
20260507223504 10 129 1.6 3.2 0.03 0.00 0.03 99 1017.2
20260507223002 10 102 0.0 1.6 0.03 0.00 0.03 99 1017.1
20260507222504 10 105 3.2 4.8 0.03 0.00 0.03 98 1017.1
20260507221504 10 172 0.0 3.2 0.03 0.00 0.03 98 1017.2
20260507221005 10 140 0.0 3.2 0.03 0.00 0.03 98 1017.1
20260507220503 10 100 1.6 4.8 0.03 0.00 0.03 98 1017.1
20260507220003 10 102 1.6 1.6 0.00 0.00 0.41 98 1017.2
20260507215503 11 149 0.0 4.8 0.00 0.00 0.41 98 1017.1
20260507214502 11 182 1.6 3.2 0.00 0.00 0.41 97 1017.2
20260507214004 11 211 1.6 3.2 0.00 0.00 0.41 97 1016.9
20260507213503 11 195 0.0 1.6 0.00 0.00 0.41 97 1016.8
20260507213003 11 121 3.2 4.8 0.00 0.00 0.41 97 1016.9
20260507212502 11 191 1.6 3.2 0.00 0.00 0.41 97 1016.9
20260507211502 11 132 1.6 1.6 0.00 0.00 0.41 97 1016.9
20260507211006 11 179 3.2 3.2 0.00 0.00 0.41 97 1016.7
20260507210505 11 172 1.6 1.6 0.00 0.00 0.41 97 1016.8
20260507210003 11 202 0.0 1.6 0.00 0.00 0.41 97 1017.0
20260507205506 11 213 0.0 0.0 0.00 0.00 0.41 97 1016.8
20260507205002 11 214 0.0 1.6 0.00 0.00 0.41 97 1016.7
20260507204003 11 244 0.0 1.6 0.00 0.00 0.41 97 1016.6
20260507203503 11 36 0.0 1.6 0.00 0.00 0.41 98 1016.5
20260507203004 11 128 1.6 3.2 0.00 0.00 0.41 97 1016.5
20260507202503 11 232 0.0 1.6 0.00 0.00 0.41 98 1016.5
20260507202003 11 187 1.6 1.6 0.00 0.00 0.41 98 1016.6
20260507201503 11 135 1.6 4.8 0.00 0.00 0.41 98 1016.6
20260507201003 11 217 0.0 3.2 0.00 0.00 0.41 98 1016.6
20260507200503 11 113 1.6 3.2 0.00 0.00 0.41 98 1016.5
20260507200002 11 135 1.6 1.6 0.00 0.00 0.41 98 1016.4
20260507195502 12 242 1.6 3.2 0.00 0.00 0.41 98 1016.2
20260507195002 12 182 1.6 8.0 0.00 0.00 0.41 98 1016.2
20260507194503 12 215 4.8 8.0 0.00 0.00 0.41 98 1016.3
20260507194003 12 185 1.6 4.8 0.00 0.00 0.41 98 1016.2
20260507193504 12 232 0.0 3.2 0.00 0.00 0.41 98 1016.2
20260507192502 12 231 0.0 1.6 0.03 0.00 0.41 98 1016.1
20260507192004 12 120 1.6 3.2 0.05 0.00 0.41 98 1016.1
20260507191502 12 156 1.6 4.8 0.05 0.00 0.41 98 1016.0
20260507191004 12 91 0.0 1.6 0.05 0.00 0.41 98 1015.9
20260507190503 12 204 1.6 9.7 0.05 0.00 0.41 98 1015.5
20260507190005 12 189 0.0 1.6 0.05 0.00 0.41 98 1015.9
20260507185002 12 137 0.0 0.0 0.08 0.00 0.41 98 1015.7
20260507184504 12 137 0.0 0.0 0.10 0.00 0.41 98 1015.4
20260507184003 12 141 0.0 0.0 0.15 0.00 0.41 98 1015.3
20260507183502 12 238 0.0 0.0 0.18 0.00 0.41 97 1015.1
20260507183004 12 238 0.0 0.0 0.15 0.00 0.38 97 1015.3
20260507182504 12 238 0.0 0.0 0.13 0.00 0.36 96 1015.3
20260507182005 13 231 0.0 0.0 0.13 0.00 0.36 96 1014.8
20260507181504 13 210 0.0 1.6 0.13 0.00 0.36 96 1014.9
20260507181002 13 170 0.0 1.6 0.13 0.00 0.36 96 1014.8
20260507180505 13 263 0.0 0.0 0.13 0.00 0.36 96 1014.6
20260507180004 13 259 0.0 1.6 0.13 0.00 0.36 95 1014.6
20260507175502 13 234 0.0 3.2 0.13 0.00 0.36 95 1015.0
20260507175003 13 193 0.0 0.0 0.08 0.00 0.30 95 1014.8
20260507174505 13 72 1.6 1.6 0.05 0.00 0.28 94 1014.9
20260507174004 13 151 0.0 0.0 0.03 0.00 0.25 94 1014.7
20260507173503 13 157 0.0 0.0 0.00 0.00 0.23 93 1014.9
20260507173004 13 196 0.0 1.6 0.00 0.00 0.23 93 1014.6
20260507172502 13 231 0.0 1.6 0.00 0.00 0.23 93 1014.6
20260507172003 13 206 0.0 3.2 0.00 0.00 0.23 93 1014.3
20260507171503 13 259 1.6 3.2 0.00 0.00 0.23 93 1014.2
20260507171005 13 158 0.0 3.2 0.00 0.00 0.23 93 1014.3
20260507170503 13 126 0.0 1.6 0.00 0.00 0.23 92 1014.1
20260507170004 13 242 0.0 0.0 0.00 0.00 0.23 92 1014.3
20260507165505 13 232 0.0 1.6 0.00 0.00 0.23 91 1014.3
20260507165003 14 223 0.0 0.0 0.00 0.00 0.23 91 1014.0
20260507164502 14 226 0.0 1.6 0.00 0.00 0.23 91 1014.0
20260507164003 14 234 3.2 3.2 0.00 0.00 0.23 90 1013.9
20260507163505 14 225 0.0 1.6 0.00 0.00 0.23 90 1014.0
20260507163003 14 299 1.6 3.2 0.00 0.00 0.23 91 1013.9
20260507162502 14 222 3.2 3.2 0.00 0.00 0.23 90 1013.7
20260507162002 14 269 1.6 3.2 0.00 0.00 0.23 90 1013.6
20260507161505 14 179 0.0 1.6 0.00 0.00 0.23 90 1013.7
20260507161003 14 250 1.6 4.8 0.00 0.00 0.23 90 1013.6
20260507160503 14 265 3.2 3.2 0.00 0.00 0.23 91 1014.0
20260507160003 14 63 1.6 1.6 0.00 0.00 0.23 92 1013.9
20260507155502 14 351 4.8 4.8 0.00 0.00 0.23 92 1013.9
20260507155004 14 292 0.0 3.2 0.00 0.00 0.23 91 1013.9
20260507154503 14 243 0.0 4.8 0.00 0.00 0.23 91 1013.8
20260507154003 15 319 1.6 3.2 0.00 0.00 0.23 91 1013.7
20260507153504 15 261 3.2 4.8 0.00 0.00 0.23 90 1013.4
20260507153003 15 90 0.0 3.2 0.00 0.00 0.23 89 1013.5
20260507152502 15 202 1.6 8.0 0.00 0.00 0.23 89 1013.6
20260507152006 15 300 3.2 9.7 0.00 0.00 0.23 88 1013.5
20260507151504 15 272 1.6 4.8 0.00 0.00 0.23 88 1013.4
20260507151002 15 218 0.0 3.2 0.00 0.00 0.23 89 1013.3
20260507150503 15 260 3.2 8.0 0.03 0.00 0.23 88 1013.4
20260507150003 15 212 3.2 9.7 0.05 0.00 0.23 88 1013.4
20260507145503 15 230 1.6 8.0 0.15 0.00 0.23 89 1013.3
20260507145003 15 208 4.8 8.0 0.23 0.00 0.23 89 1013.4
20260507144503 15 236 1.6 8.0 0.23 0.00 0.23 89 1013.4
20260507144002 15 284 1.6 8.0 0.23 0.00 0.23 88 1013.2
20260507143502 15 255 3.2 4.8 0.23 0.00 0.23 88 1013.1
20260507143004 15 163 4.8 8.0 0.23 0.00 0.23 88 1013.1
20260507142504 15 189 0.0 3.2 0.23 0.00 0.23 90 1013.0
20260507142004 15 186 3.2 12.9 0.23 0.00 0.23 89 1013.1
20260507141506 15 213 4.8 8.0 0.23 0.00 0.23 90 1013.2
20260507141008 15 157 6.4 9.7 0.23 0.00 0.23 90 1012.9
20260507140503 15 187 0.0 3.2 0.20 0.00 0.20 90 1013.0
20260507140003 15 181 3.2 9.7 0.10 0.00 0.10 87 1013.1
20260507135503 17 152 4.8 14.5 0.05 0.00 0.05 82 1012.9
20260507135003 19 216 1.6 11.3 0.00 0.00 0.00 66 1012.8
20260507134504 20 347 0.0 3.2 0.00 0.00 0.00 63 1012.7
20260507134002 20 100 1.6 3.2 0.00 0.00 0.00 60 1012.6
20260507133503 20 141 1.6 1.6 0.00 0.00 0.00 61 1012.6
20260507133002 20 65 1.6 8.0 0.00 0.00 0.00 61 1012.6
20260507132503 20 9 3.2 9.7 0.00 0.00 0.00 60 1012.5
20260507132003 20 27 6.4 9.7 0.00 0.00 0.00 58 1012.6
20260507131503 21 321 1.6 11.3 0.00 0.00 0.00 56 1012.7
20260507131004 21 31 3.2 4.8 0.00 0.00 0.00 57 1012.6
20260507130506 21 342 1.6 11.3 0.00 0.00 0.00 55 1012.8
20260507130004 21 53 3.2 9.7 0.00 0.00 0.00 54 1012.5
20260507125504 21 56 1.6 9.7 0.00 0.00 0.00 54 1012.8
20260507125002 20 23 0.0 3.2 0.00 0.00 0.00 62 1013.0
20260507124504 19 349 1.6 4.8 0.00 0.00 0.00 67 1013.0
20260507124003 18 325 1.6 3.2 0.00 0.00 0.00 70 1012.9
20260507123502 18 352 3.2 3.2 0.00 0.00 0.00 73 1012.9
20260507123003 18 269 3.2 8.0 0.00 0.00 0.00 74 1013.0
20260507122502 18 311 0.0 1.6 0.00 0.00 0.00 71 1013.1
20260507122004 18 331 0.0 3.2 0.00 0.00 0.00 73 1013.0
20260507121503 18 30 1.6 3.2 0.00 0.00 0.00 73 1013.0
20260507121003 18 345 1.6 3.2 0.00 0.00 0.00 69 1013.0
20260507120504 18 4 0.0 3.2 0.00 0.00 0.00 65 1012.9
20260507120004 18 292 0.0 3.2 0.00 0.00 0.00 67 1013.2
20260507115503 19 178 0.0 1.6 0.00 0.00 0.00 66 1013.4
20260507115002 19 248 0.0 1.6 0.00 0.00 0.00 65 1013.1
20260507114503 19 228 0.0 1.6 0.00 0.00 0.00 64 1013.1
20260507114006 20 32 1.6 3.2 0.00 0.00 0.00 60 1013.0
20260507113504 21 232 4.8 4.8 0.00 0.00 0.00 55 1012.8
20260507113004 21 274 1.6 1.6 0.00 0.00 0.00 55 1013.0
20260507112504 20 233 0.0 1.6 0.00 0.00 0.00 58 1012.9
20260507112003 20 234 0.0 4.8 0.00 0.00 0.00 60 1012.9
20260507111506 20 238 1.6 1.6 0.00 0.00 0.00 59 1013.0
20260507111004 20 123 1.6 3.2 0.00 0.00 0.00 62 1013.2
20260507110504 20 68 0.0 1.6 0.00 0.00 0.00 62 1013.1
20260507110003 19 347 0.0 1.6 0.00 0.00 0.00 62 1013.2
20260507105504 19 32 0.0 1.6 0.00 0.00 0.00 62 1013.0
20260507105004 18 26 0.0 1.6 0.00 0.00 0.00 63 1013.1
20260507104504 19 179 1.6 4.8 0.00 0.00 0.00 66 1012.9
20260507104006 18 205 1.6 4.8 0.00 0.00 0.00 65 1013.1
20260507103503 18 105 0.0 1.6 0.00 0.00 0.00 66 1012.8
20260507103004 18 128 3.2 4.8 0.00 0.00 0.00 67 1013.1
20260507102504 18 5 1.6 3.2 0.00 0.00 0.00 67 1012.8
20260507102004 19 202 3.2 4.8 0.00 0.00 0.00 64 1013.0
20260507101502 18 119 0.0 1.6 0.00 0.00 0.00 67 1012.8
20260507101003 18 116 1.6 3.2 0.00 0.00 0.00 67 1012.8
20260507100503 18 55 3.2 8.0 0.00 0.00 0.00 67 1012.9
20260507100004 18 143 1.6 4.8 0.00 0.00 0.00 67 1012.8
20260507095502 18 86 4.8 8.0 0.00 0.00 0.00 68 1012.7
20260507095002 18 114 1.6 3.2 0.00 0.00 0.00 68 1012.6
20260507094503 18 119 0.0 4.8 0.00 0.00 0.00 68 1012.7
20260507094003 18 101 4.8 8.0 0.00 0.00 0.00 68 1012.7
20260507093504 18 0 1.6 3.2 0.00 0.00 0.00 68 1012.7
20260507093004 18 71 1.6 4.8 0.00 0.00 0.00 71 1012.7
20260507092503 18 78 3.2 4.8 0.00 0.00 0.00 70 1012.5
20260507092002 18 111 1.6 4.8 0.00 0.00 0.00 70 1012.6
20260507091504 17 179 3.2 3.2 0.00 0.00 0.00 72 1012.6
20260507091002 17 146 3.2 4.8 0.00 0.00 0.00 74 1012.6
20260507090503 17 84 1.6 4.8 0.00 0.00 0.00 74 1012.6
20260507090002 17 243 3.2 3.2 0.00 0.00 0.00 76 1012.3
20260507085502 17 114 6.4 8.0 0.00 0.00 0.00 76 1012.5
20260507085003 16 49 6.4 8.0 0.00 0.00 0.00 76 1012.3
20260507084502 16 134 1.6 9.7 0.00 0.00 0.00 77 1012.3
20260507084003 16 66 3.2 4.8 0.00 0.00 0.00 78 1012.1
20260507083504 16 187 4.8 9.7 0.00 0.00 0.00 78 1012.1
20260507083005 16 133 4.8 12.9 0.00 0.00 0.00 79 1011.9
20260507082503 16 92 1.6 3.2 0.00 0.00 0.00 80 1011.9
20260507082003 16 113 3.2 9.7 0.00 0.00 0.00 79 1011.9
20260507081503 16 122 4.8 4.8 0.00 0.00 0.00 79 1011.9
20260507081004 16 189 3.2 8.0 0.00 0.00 0.00 79 1011.9
20260507080504 16 112 3.2 4.8 0.00 0.00 0.00 79 1011.9
20260507080005 16 59 4.8 9.7 0.00 0.00 0.00 78 1011.8
20260507075504 16 131 1.6 3.2 0.00 0.00 0.00 81 1011.9
20260507075003 16 65 4.8 8.0 0.00 0.00 0.00 80 1011.7
20260507074504 16 58 3.2 3.2 0.00 0.00 0.00 81 1011.6
20260507074003 16 130 3.2 4.8 0.00 0.00 0.00 82 1011.5
20260507073504 16 138 4.8 8.0 0.00 0.00 0.00 82 1011.5
20260507073002 15 127 0.0 8.0 0.00 0.00 0.00 83 1011.4
20260507072503 16 109 4.8 11.3 0.00 0.00 0.00 81 1011.3
20260507072004 16 112 1.6 4.8 0.00 0.00 0.00 81 1011.2
20260507071504 16 91 6.4 8.0 0.00 0.00 0.00 80 1011.2
20260507071004 16 73 1.6 4.8 0.00 0.00 0.00 81 1011.1
20260507070504 16 65 3.2 11.3 0.00 0.00 0.00 81 1011.2
20260507070008 16 67 1.6 8.0 0.00 0.00 0.00 80 1011.0
20260507065503 16 96 3.2 8.0 0.00 0.00 0.00 79 1010.9
20260507065002 16 161 4.8 8.0 0.00 0.00 0.00 79 1010.9
20260507064504 16 340 4.8 9.7 0.00 0.00 0.00 78 1010.8
20260507064004 16 65 3.2 3.2 0.00 0.00 0.00 77 1010.6
20260507063503 16 71 4.8 11.3 0.00 0.00 0.00 78 1010.7
20260507063003 16 57 3.2 4.8 0.00 0.00 0.00 79 1010.7
20260507062504 16 31 3.2 8.0 0.00 0.00 0.00 80 1010.6
20260507062002 16 75 1.6 4.8 0.00 0.00 0.00 81 1010.6
20260507061505 16 9 1.6 9.7 0.00 0.00 0.00 81 1010.6
20260507061005 16 119 1.6 1.6 0.00 0.00 0.00 82 1010.2
20260507060502 16 137 0.0 0.0 0.00 0.00 0.00 82 1010.4
20260507060003 16 140 1.6 1.6 0.00 0.00 0.00 83 1010.4
20260507055503 16 137 0.0 1.6 0.00 0.00 0.00 82 1010.3
20260507055004 15 143 0.0 0.0 0.00 0.00 0.00 84 1010.3
20260507054504 15 200 0.0 1.6 0.00 0.00 0.00 85 1010.3
20260507054004 15 295 0.0 1.6 0.00 0.00 0.00 85 1010.1
20260507053503 15 272 0.0 1.6 0.00 0.00 0.00 85 1010.2
20260507053003 15 263 0.0 0.0 0.00 0.00 0.00 86 1010.2
20260507052503 15 257 0.0 1.6 0.00 0.00 0.00 87 1010.0
20260507052004 15 234 0.0 0.0 0.00 0.00 0.00 88 1010.1
20260507051504 14 257 0.0 1.6 0.00 0.00 0.00 89 1010.0
20260507051003 14 279 0.0 1.6 0.00 0.00 0.00 90 1010.0
20260507050505 13 248 0.0 3.2 0.00 0.00 0.00 90 1010.1
20260507050004 13 251 0.0 3.2 0.00 0.00 0.00 90 1009.9
20260507045504 13 222 0.0 0.0 0.00 0.00 0.00 91 1009.8
20260507045003 13 222 0.0 0.0 0.00 0.00 0.00 91 1010.0
20260507044502 13 241 0.0 1.6 0.00 0.00 0.00 91 1009.9
20260507044004 13 218 0.0 0.0 0.00 0.00 0.00 91 1009.9
20260507043506 13 218 0.0 0.0 0.00 0.00 0.00 92 1009.8
20260507043005 13 188 1.6 1.6 0.00 0.00 0.00 91 1010.0
20260507042504 13 166 0.0 0.0 0.00 0.00 0.00 91 1010.0
20260507042002 13 215 0.0 0.0 0.00 0.00 0.00 91 1009.9
20260507041504 13 270 0.0 0.0 0.00 0.00 0.00 91 1009.9
20260507041002 13 265 1.6 3.2 0.00 0.00 0.00 90 1009.7
20260507040504 13 239 0.0 0.0 0.00 0.00 0.00 90 1009.9
20260507040003 13 242 0.0 0.0 0.00 0.00 0.00 90 1009.9
20260507035504 13 221 0.0 0.0 0.00 0.00 0.00 90 1009.7
20260507035003 13 221 1.6 1.6 0.00 0.00 0.00 90 1009.5
20260507034503 13 217 0.0 0.0 0.00 0.00 0.00 90 1009.5
20260507034006 13 217 0.0 0.0 0.00 0.00 0.00 90 1009.5
20260507033005 13 156 0.0 0.0 0.00 0.00 0.00 90 1009.5
20260507032505 13 152 1.6 3.2 0.00 0.00 0.00 90 1009.5
20260507032003 13 93 1.6 3.2 0.00 0.00 0.00 91 1009.3
20260507031503 13 332 0.0 0.0 0.00 0.00 0.00 88 1009.3
20260507031003 13 284 0.0 0.0 0.00 0.00 0.00 88 1009.2
20260507030505 13 327 0.0 0.0 0.00 0.00 0.00 88 1009.1
20260507030004 13 273 0.0 0.0 0.00 0.00 0.00 88 1009.1
20260507025504 13 273 1.6 1.6 0.00 0.00 0.00 88 1009.2
20260507025005 13 272 0.0 1.6 0.00 0.00 0.00 88 1009.0
20260507024505 13 272 0.0 0.0 0.00 0.00 0.00 88 1009.0
20260507024004 13 278 0.0 0.0 0.00 0.00 0.00 88 1009.2
20260507023003 13 279 0.0 1.6 0.00 0.00 0.00 88 1009.1
20260507022504 13 267 0.0 1.6 0.00 0.00 0.00 88 1009.0
20260507022004 13 267 0.0 0.0 0.00 0.00 0.00 88 1009.1
20260507021502 13 267 0.0 0.0 0.00 0.00 0.00 87 1009.0
20260507021002 13 267 0.0 0.0 0.00 0.00 0.00 87 1009.2
20260507020505 13 231 0.0 0.0 0.00 0.00 0.00 87 1009.1
20260507020007 13 231 0.0 0.0 0.00 0.00 0.00 87 1009.1
20260507015504 13 187 0.0 0.0 0.00 0.00 0.00 87 1009.1
20260507015003 14 194 0.0 1.6 0.00 0.00 0.00 86 1008.9
20260507014504 14 263 0.0 0.0 0.00 0.00 0.00 86 1008.9
20260507014003 14 290 1.6 4.8 0.00 0.00 0.00 86 1008.9
20260507013502 13 314 1.6 3.2 0.00 0.00 0.00 86 1008.9
20260507013003 13 237 0.0 0.0 0.00 0.00 0.00 86 1009.0
20260507012502 14 127 3.2 3.2 0.00 0.00 0.00 86 1009.4
20260507012003 13 304 0.0 1.6 0.00 0.00 0.00 87 1009.1
20260507011503 13 183 0.0 0.0 0.00 0.00 0.00 87 1009.1
20260507011002 13 246 0.0 1.6 0.00 0.00 0.00 87 1009.1
20260507010503 13 25 1.6 1.6 0.00 0.00 0.00 88 1008.9
20260507010004 13 251 0.0 1.6 0.00 0.00 0.00 88 1008.9
20260507005505 13 282 0.0 1.6 0.00 0.00 0.00 87 1008.9
20260507005003 13 285 0.0 0.0 0.00 0.00 0.00 87 1008.8
20260507004502 13 280 0.0 0.0 0.00 0.00 0.00 87 1009.0
20260507004003 13 310 1.6 1.6 0.00 0.00 0.00 86 1008.9
20260507003504 13 257 0.0 1.6 0.00 0.00 0.00 86 1009.0
20260507003004 14 228 0.0 3.2 0.00 0.00 0.00 86 1009.1
20260507002504 14 224 0.0 0.0 0.00 0.00 0.00 86 1009.2
20260507002005 14 184 0.0 0.0 0.00 0.00 0.00 86 1009.1
20260507001503 14 231 0.0 1.6 0.00 0.00 0.00 86 1009.2
20260507001003 14 194 0.0 3.2 0.00 0.00 0.00 86 1009.3
20260507000510 14 237 1.6 3.2 0.00 0.00 0.00 86 1009.1
20260507000005 14 220 0.0 1.6 0.00 0.00 0.00 86 1009.3
20260506235504 14 161 0.0 1.6 0.00 0.00 0.00 86 1009.2
20260506235003 14 272 3.2 3.2 0.00 0.00 0.00 86 1009.3
20260506234502 14 208 0.0 0.0 0.00 0.00 0.00 86 1009.2
20260506234003 14 139 0.0 0.0 0.00 0.00 0.00 86 1009.2
20260506233503 14 180 1.6 3.2 0.00 0.00 0.00 86 1009.1
20260506233005 14 208 3.2 4.8 0.00 0.00 0.00 87 1009.2
20260506232503 15 233 1.6 3.2 0.00 0.00 0.00 87 1009.1
20260506232002 15 138 1.6 4.8 0.00 0.00 0.00 86 1009.1
20260506231503 15 226 6.4 11.3 0.00 0.00 0.00 85 1009.2
20260506231003 15 206 4.8 4.8 0.00 0.00 0.00 84 1009.1